This is the latest recevied weather packets stored in our database for station/object KN6DHD. If no packets are shown the sender has not sent any weather packets the latest 10 day(s).
| Time | Temp. | Humidity | Pressure | Rain* | Wind** | Luminosity | Snow |
|---|---|---|---|---|---|---|---|
| 1778111404 | 26.11° C | 53% | 1017.1 hPa | 0 mm | - | 363 W/m² | - |
| 1778111102 | 25.56° C | 53% | 1017.4 hPa | 0 mm | - | 377 W/m² | - |
| 1778110799 | 26.11° C | 52% | 1017.5 hPa | 0 mm | - | 376 W/m² | - |
| 1778110495 | 26.67° C | 52% | 1017.5 hPa | 0 mm | - | 367 W/m² | - |
| 1778110192 | 27.22° C | 49% | 1017.3 hPa | 0 mm | - | 380 W/m² | - |
| 1778109888 | 26.67° C | 51% | 1017.3 hPa | 0 mm | - | 378 W/m² | - |
| 1778109584 | 27.22° C | 49% | 1017.4 hPa | 0 mm | - | 409 W/m² | - |
| 1778109282 | 26.11° C | 50% | 1017.5 hPa | 0 mm | - | 442 W/m² | - |
| 1778108979 | 25.56° C | 52% | 1017.6 hPa | 0 mm | - | 459 W/m² | - |
| 1778108675 | 26.11° C | 52% | 1017.8 hPa | 0 mm | - | 455 W/m² | - |
| 1778108372 | 26.67° C | 50% | 1018 hPa | 0 mm | - | 485 W/m² | - |
| 1778108069 | 26.67° C | 51% | 1017.7 hPa | 0 mm | - | 476 W/m² | - |
| 1778107766 | 26.11° C | 51% | 1017.9 hPa | 0 mm | - | 488 W/m² | - |
| 1778107463 | 25.56° C | 52% | 1018 hPa | 0 mm | - | 516 W/m² | - |
| 1778107159 | 26.11° C | 52% | 1018.1 hPa | 0 mm | - | 519 W/m² | - |
| 1778106854 | 26.11° C | 51% | 1018.2 hPa | 0 mm | - | 543 W/m² | - |
| 1778106547 | 26.67° C | 51% | 1018.5 hPa | 0 mm | - | 593 W/m² | - |
| 1778106243 | 26.67° C | 53% | 1018.4 hPa | 0 mm | - | 617 W/m² | - |
| 1778105940 | 26.11° C | 52% | 1018.4 hPa | 0 mm | - | 613 W/m² | - |
| 1778105637 | 27.22° C | 50% | 1018.5 hPa | 0 mm | - | 614 W/m² | - |
| 1778105335 | 27.22° C | 49% | 1018.7 hPa | 0 mm | - | 605 W/m² | - |
| 1778105030 | 27.22° C | 50% | 1018.6 hPa | 0 mm | - | 599 W/m² | - |
| 1778104726 | 26.67° C | 50% | 1019.1 hPa | 0 mm | - | 633 W/m² | - |
| 1778104422 | 26.67° C | 51% | 1018.8 hPa | 0 mm | - | 685 W/m² | - |
| 1778104113 | 25.56° C | 53% | 1018.9 hPa | 0 mm | - | 705 W/m² | - |
* Rain latest hour (hover to see other rain measurements)
** Current wind speed in m/s (hover to see current wind gust speed)